STARLINK-31911, 60587

Orbit data source: Space-Track

STARLINK-31911, 60587 is a payload satellite owned by SpaceX/Seattle (US) in LEO that was launched on Tue, 20 Aug 2024 UTC via an FALCON 9 launch vehicle from the Air Force Eastern Test Range (AFETR). Payload-class satellites include a variety of spacecraft equipped with specific instruments for various scientific and technological missions. These include communications satellites like Starlink; space stations such as the ISS; scientific satellites like the Hubble; Earth observation satellites from companies like Planet Labs, Umbra, and HawkEye 360; GPS; miniature CubeSats for education and research; and military/defense satellites.

Loading next visibility...
Identifier
60587, 2024-150E
Orbit
LEO
Country
Flag of USUS
Related business
Manufacturer
SpaceX/Seattle
Mission
Operational Commercial Communications
Bus & Motor
STARLINK V2M, Unknown motor
Mass
730 kg wet, ~700 kg dry
Launch date (UTC)
2024-08-20 (2 years ago)
Launch vehicle
FALCON 9
Launch site
Air Force Eastern Test Range (AFETR)
Object type
Payload
Rocket body
Debris
Shape & HBR
Box + 2 Pan, 17.7 m
Radar Cross Section
33.884 m², Large (>1 m²)

Expand to show TLE details & history
Last TLE update: 14 hours ago

TLE from 14 hours ago
0 STARLINK-31911
1 60587U 24150E   26171.30594719  .00000368  00000-0  22027-4 0  9997
2 60587  53.1597 188.8817 0001245  86.3579 273.7565 15.34390895103690
Epoch: 2026-06-20T07:20Z
TLE epoch observation values (Epoch: 2026-06-20T07:20:33.837Z)
Latitude
-0.00009°
Longitude
170.21818°
Altitude
463.576 km
Speed
7.636 km/s
True Right ascension
12h 35m 31s
True Declination
0° 00' 00"
Sunlit
Object was in daylight at epoch
Visualization orbit readout
Latitude
Unknown
Longitude
Unknown
Altitude
Unknown
Speed
Unknown
Apparent Right ascension
Unknown
Apparent Declination
Unknown
Sunlit
N/A
Visualization observer readout
Local Sidereal Time
08:33:02
Azimuth
Unknown
Elevation
Unknown
Doppler factor
Unknown
Orbital elements
Apogee altitude
463.839 km
Perigee altitude
462.136 km
Semi-major axis
6,841.124 km
Eccentricity
0.00012
Inclination
53.1597°
RAAN
188.8817°
Arg. of periapsis
86.3579°
True anomaly
273.74226°
Mean anomaly
273.7565°
Eccentric anomaly
273.74938°
Mean motion
3.83576 °/min
Orbital period
93.85 mins
BSTAR
0.000022027
Loading maneuver chart data...
Computing Atmospheric mass density...
Loading historical data...
Loading historical data...
Loading historical data...
Loading historical data...
Loading historical data...
Loading historical data...
Loading historical data...

Documentation

Showing up to 5 results
|